Temperature
25 24 23 24 27 29 32 34 35 35 35 34 34 34 32 30 29 27 26 26 24 24 24 23 22 21 21 21 20 20 20 20 20 20 21 21 21 20 20 20 20 20 20 20 20 20 20 20 20
25 23 25 27 28 30 32 34 34 34 35 35 34 34 32 30 29 27 26 25 24 24 24 23 23 22 21 21 21 20 20 20 20 20 20 20 20 20 20 20 20 20 20 20 20 20 20 20 20
25 25 27 30 30 31 32 34 34 35 35 34 34 32 31 29 28 27 26 25 23 23 24 24 23 22 22 21 21 20 20 20 20 20 20 20 20 20 20 20 20 20 20 20 20 20 20 20 20
25 28 29 31 32 33 34 35 35 35 35 34 34 32 29 28 28 26 25 25 23 23 23 24 23 22 22 21 21 20 20 20 20 20 20 20 20 20 20 20 19 19 19 19 19 19 19 19 19
28 30 32 32 32 34 35 35 35 35 35 34 33 31 28 27 27 26 26 25 24 23 23 23 23 22 22 21 21 21 20 20 20 20 20 20 20 20 20 19 19 19 19 19 19 19 19 19 19
30 33 33 32 32 33 35 35 35 34 34 34 33 30 28 27 26 26 26 25 25 23 23 23 23 22 22 22 21 21 21 20 20 20 20 20 20 19 19 19 19 19 19 19 19 19 19 19 19
31 33 33 34 33 33 35 35 35 34 34 34 33 31 28 27 26 26 26 26 25 23 23 24 23 22 22 22 21 21 21 20 20 20 20 20 20 19 19 19 19 19 19 19 19 19 19 19 19
32 33 33 34 34 34 35 35 35 35 33 33 33 31 28 27 26 26 26 26 25 24 23 23 23 22 22 22 22 21 21 21 20 20 20 20 20 20 19 19 19 19 19 19 19 19 19 19 19
32 32 33 34 34 35 35 35 35 34 33 33 33 32 29 27 26 26 26 26 25 24 23 22 22 22 22 22 21 21 21 21 20 20 20 20 20 19 19 19 19 19 19 19 19 19 19 19 19
33 32 34 36 36 35 35 35 35 33 32 31 30 29 28 27 27 26 25 25 25 24 23 22 22 22 21 21 21 21 21 21 20 20 20 20 19 19 19 19 19 19 19 19 19 19 19 19 19
34 33 34 35 35 35 35 35 35 33 30 28 27 27 27 27 27 26 25 25 24 24 23 22 22 21 21 21 21 20 20 20 20 20 19 19 19 19 19 19 19 19 19 19 19 19 19 19 19
34 34 34 35 35 34 35 35 35 33 31 29 28 27 26 27 27 26 26 25 24 23 23 23 22 21 21 21 21 20 20 20 20 20 19 19 19 19 19 19 19 19 19 19 18 18 19 18 18
34 34 34 34 34 34 34 34 34 33 31 30 28 28 27 28 28 27 26 25 24 23 23 23 22 21 21 21 21 20 20 20 20 20 19 19 19 19 19 19 19 19 19 19 19 18 19 18 18
33 33 34 34 34 34 34 34 34 33 32 30 28 28 28 29 29 28 27 26 24 24 23 23 22 21 21 21 21 21 20 20 20 20 19 19 19 19 19 19 18 18 18 19 19 19 19 19 19
32 32 33 33 34 34 34 34 34 34 33 32 31 30 30 30 29 28 27 26 25 24 23 23 22 21 21 21 20 20 20 20 20 20 19 19 19 19 19 18 18 18 18 18 18 18 18 18 18
32 31 31 33 34 34 34 32 34 33 33 32 31 31 30 29 28 28 27 26 25 24 24 23 22 21 21 21 20 20 20 20 20 19 19 19 19 18 18 18 18 18 18 18 18 18 18 18 18
31 31 31 33 35 35 34 33 34 33 32 31 30 29 29 28 27 27 26 25 25 24 23 22 22 21 21 21 20 20 20 20 20 19 19 19 19 18 18 18 18 18 18 17 17 17 17 17 18
31 32 32 33 34 33 32 32 33 32 31 30 29 28 28 27 26 26 25 25 24 23 22 22 22 21 21 20 20 20 20 20 20 20 19 19 19 18 18 17 17 17 17 17 17 17 17 17 17
31 31 32 32 33 32 32 32 32 32 31 30 29 28 27 26 25 25 24 24 23 22 22 21 21 21 21 20 20 20 20 20 20 20 19 19 19 18 18 18 17 17 17 17 17 17 17 17 17
31 31 31 32 32 32 31 31 32 31 30 29 27 26 26 25 24 23 23 22 22 21 21 21 20 20 20 20 20 20 20 20 20 20 19 19 18 18 18 18 18 17 17 17 17 16 16 16 16
31 30 30 30 31 31 31 30 31 30 28 26 25 24 23 23 22 22 21 21 21 20 20 20 20 20 20 20 20 20 20 20 19 19 19 19 18 18 18 18 18 17 17 17 16 16 16 16 16
29 30 30 30 29 29 30 28 29 28 26 24 22 21 20 21 20 20 20 20 20 20 20 20 19 19 19 19 19 19 19 19 19 19 19 19 18 18 18 18 17 17 17 17 17 16 16 16 16
30 31 30 30 29 29 29 28 28 27 24 22 21 20 19 20 20 19 19 19 19 19 19 19 19 19 19 19 19 19 18 19 19 18 18 18 18 18 18 17 17 17 17 17 16 17 16 16 15
31 30 30 29 27 25 25 24 25 26 24 23 22 21 20 20 19 18 18 18 18 18 18 18 18 18 18 18 18 18 18 18 18 18 18 18 17 17 17 17 17 17 17 16 16 16 16 16 15
30 28 27 25 22 21 21 23 24 25 25 24 23 22 21 19 19 18 17 17 16 16 16 17 17 17 17 17 17 17 16 16 16 17 17 17 17 17 17 17 16 16 16 16 16 16 16 16 15
29 28 26 25 25 24 23 24 22 22 22 22 22 21 20 19 18 17 17 16 15 15 15 15 15 16 16 16 16 15 15 15 15 16 16 16 16 16 16 16 16 16 15 15 15 15 15 15 15
29 29 29 28 27 27 26 23 20 20 20 21 21 21 20 19 18 17 17 16 15 15 14 14 14 14 14 14 15 14 14 15 15 15 15 15 15 15 15 15 15 15 15 15 15 15 15 15 14
30 30 29 27 25 25 26 24 21 19 19 20 21 20 20 19 19 18 17 16 15 15 14 14 14 13 13 13 13 13 13 14 14 14 14 14 14 14 15 15 15 15 14 14 14 14 14 14 14
29 29 28 27 27 25 25 24 23 20 20 21 21 20 19 18 18 17 17 16 15 15 14 14 13 13 12 12 12 12 12 12 12 12 13 13 13 13 14 14 14 14 14 14 14 14 14 14 14
28 28 28 26 25 26 25 22 22 21 21 20 20 19 18 17 17 16 16 15 15 14 13 13 13 12 12 12 12 12 11 11 11 11 11 12 12 12 12 12 13 13 13 13 13 13 13 13 13
Wind_Speed
9 12 10 6 6 6 5 13 14 13 12 11 10 9 18 17 12 12 13 18 24 22 21 21 19 18 17 16 15 15 15 14 13 12 11 11 10 10 9 9 9 9 9 9 8 8 8 8 7
10 13 8 5 5 2 9 12 12 11 9 9 10 13 18 16 15 15 16 20 24 21 20 20 20 18 17 16 15 15 14 13 12 11 11 10 9 9 8 8 8 8 7 7 7 7 7 6 6
10 14 6 5 4 2 7 9 9 10 9 10 13 15 12 10 13 13 17 21 22 19 19 21 21 18 17 15 14 14 13 12 12 11 10 9 8 7 7 7 6 6 6 6 5 5 6 5 5
8 7 6 7 5 2 6 7 6 10 8 8 13 12 10 9 11 16 18 20 21 19 20 22 20 18 16 15 14 13 12 11 11 10 9 8 8 7 6 6 5 5 5 5 5 5 5 5 5
9 7 10 5 6 2 5 5 7 9 8 12 17 15 12 12 17 19 17 19 19 20 19 21 20 18 16 14 13 12 11 10 10 9 8 7 7 6 6 6 6 6 5 5 5 6 6 7 7
7 9 11 5 3 4 2 3 6 9 6 9 15 16 10 13 15 16 17 16 18 20 19 19 19 18 16 14 13 12 11 10 9 9 8 8 7 7 8 8 8 8 8 8 8 8 8 8 9
11 13 16 10 5 5 2 2 4 4 5 7 11 14 11 14 14 15 14 14 18 21 19 17 17 16 15 14 13 12 11 10 10 9 9 9 9 10 10 11 11 11 11 11 11 11 11 11 12
11 12 18 12 7 4 3 2 3 4 5 3 4 10 13 16 16 16 13 12 15 19 19 16 16 16 15 15 15 14 13 12 11 11 11 11 12 13 15 15 16 15 15 14 13 14 14 14 14
14 13 16 12 6 2 2 3 3 4 8 6 3 12 20 21 19 16 12 12 12 15 16 16 16 14 15 16 17 16 15 14 13 13 14 13 12 14 16 20 21 20 18 17 16 15 15 15 16
11 13 17 11 7 4 3 5 1 2 1 3 10 16 20 20 19 17 14 14 13 12 14 14 15 14 12 11 15 14 14 15 15 13 14 14 13 13 14 12 20 22 21 20 18 18 16 16 15
15 17 19 15 10 9 9 8 3 4 3 6 10 7 8 17 17 16 15 14 12 11 11 11 13 10 9 7 10 8 9 11 15 15 13 12 11 11 11 7 12 16 18 15 16 16 15 14 13
17 17 17 14 11 11 12 11 7 3 4 13 16 15 16 16 18 17 15 14 14 12 12 11 11 8 4 3 4 5 5 5 6 10 13 9 5 5 4 3 3 7 9 9 9 7 11 13 14
15 15 17 16 13 13 13 14 11 5 6 14 18 20 19 18 17 16 16 15 15 11 11 10 9 9 6 3 2 3 3 2 3 3 6 6 3 4 4 3 3 4 5 4 4 5 6 7 6
14 16 16 15 14 14 14 16 15 10 7 13 16 17 17 15 16 16 16 14 15 14 12 11 9 9 7 5 4 3 3 2 3 3 4 4 4 2 3 4 4 4 5 5 3 6 6 5 5
15 16 17 18 19 18 16 17 16 13 7 9 12 13 12 11 12 13 14 14 14 13 12 11 9 9 8 6 5 5 5 4 3 2 3 3 3 2 3 4 5 5 6 5 5 6 5 7 7
14 16 19 20 21 18 15 16 12 5 5 6 6 8 8 7 8 9 11 10 10 10 10 10 10 10 9 5 3 3 3 2 1 1 1 1 2 3 2 4 5 4 5 4 5 6 6 6 6
16 18 19 19 16 13 12 13 7 1 3 3 4 4 6 8 6 6 9 10 9 8 10 8 5 8 7 6 4 3 3 2 2 1 1 2 2 3 2 3 4 4 4 4 6 5 4 6 6
12 13 14 13 4 4 8 10 6 2 3 3 3 4 5 7 6 6 6 7 8 8 8 8 6 6 6 5 4 2 2 2 1 1 3 2 2 2 2 4 3 4 4 4 4 5 5 5 6
13 13 12 7 4 4 8 10 9 3 5 4 3 5 7 7 7 6 5 6 8 8 8 7 6 5 2 2 3 3 3 2 1 2 4 2 1 3 2 4 4 4 4 4 5 5 6 6 5
10 11 11 8 5 6 10 14 12 5 2 1 4 2 3 7 8 7 6 6 6 7 6 7 6 4 2 2 1 1 1 2 2 1 4 3 1 1 3 3 4 4 4 6 5 4 5 6 5
8 9 9 9 8 10 12 15 11 5 3 7 9 9 8 8 8 7 7 7 6 6 5 5 5 4 1 1 0 0 1 2 2 1 2 3 1 2 2 3 4 4 5 5 5 5 6 6 5
8 8 9 11 12 12 12 12 8 4 7 9 10 10 10 11 10 9 9 8 8 7 6 7 5 3 1 0 1 2 2 2 3 2 1 2 2 3 3 4 4 4 4 6 6 4 5 6 7
8 9 11 14 15 16 13 11 4 7 9 8 7 6 7 9 10 11 11 10 9 9 8 7 5 4 3 3 3 4 4 4 4 4 3 2 4 5 6 5 4 4 5 5 5 6 6 6 7
9 11 13 11 10 13 11 10 4 4 7 9 9 7 8 10 11 12 11 11 11 11 10 9 6 4 4 5 5 5 6 6 7 7 6 5 5 5 5 5 4 4 5 5 5 6 7 7 7
8 11 9 7 3 5 8 8 0 6 7 9 10 10 12 12 12 12 13 13 12 13 12 11 11 9 8 8 7 7 7 7 6 6 7 6 6 5 3 2 1 4 5 6 6 7 7 8 8
8 10 10 12 11 6 9 5 7 9 10 11 11 11 11 11 11 11 11 11 11 11 11 11 10 9 10 9 9 8 8 7 7 8 8 8 6 6 5 3 4 5 6 7 6 6 8 7 7
7 9 12 13 15 14 3 5 5 7 5 5 6 8 9 9 9 8 8 8 8 8 8 8 8 8 8 8 8 7 7 7 8 8 8 7 7 9 8 7 7 7 7 7 7 7 8 8 8
7 9 8 8 10 13 12 1 4 9 7 3 3 6 7 7 7 7 7 7 7 7 7 6 6 6 6 7 7 8 7 7 7 7 7 8 8 8 9 9 9 9 8 8 8 8 8 8 8
9 9 8 8 9 12 14 6 5 9 5 2 4 6 7 8 8 8 8 7 7 8 8 8 7 7 6 6 6 7 7 7 7 7 8 8 8 9 9 10 10 10 10 9 8 9 9 9 9
10 8 7 7 9 11 13 4 9 8 7 6 6 6 7 8 9 10 10 9 9 9 10 9 9 8 8 7 7 7 7 8 8 9 8 9 9 10 10 10 10 11 11 10 10 10 10 9 9
Wind_Direction
230 231 226 248 257 244 63 61 60 60 63 62 45 48 62 54 61 93 124 125 119 126 135 138 139 140 140 140 141 141 141 139 135 133 130 127 124 120 117 113 111 110 109 108 108 106 104 103 102
261 250 243 248 272 330 69 70 65 59 61 76 65 63 75 70 86 113 121 119 121 129 140 142 142 143 143 143 144 145 145 145 143 141 139 137 133 130 127 124 121 119 119 119 120 119 118 119 120
259 258 261 245 251 76 81 79 83 78 64 74 80 64 63 84 97 114 123 126 126 134 141 140 147 147 147 147 148 149 150 150 149 148 148 147 146 145 142 139 138 137 137 137 138 138 139 143 146
263 247 229 263 298 79 87 91 94 96 86 82 87 82 77 77 104 120 133 130 130 138 139 144 150 150 151 152 154 155 156 156 157 157 159 161 163 165 166 166 167 168 167 168 169 170 171 174 179
259 258 251 266 309 342 80 78 83 78 71 81 89 93 92 93 108 127 138 135 141 140 137 147 152 154 156 158 160 162 164 166 167 170 174 179 185 190 195 197 198 201 203 204 205 204 203 202 204
275 267 274 266 257 270 118 99 89 98 114 115 110 106 105 118 126 142 141 147 143 135 136 146 153 157 160 164 168 171 174 176 179 184 191 199 207 214 220 221 221 221 223 226 227 226 224 222 220
273 292 292 277 232 242 215 117 110 137 126 99 111 114 126 135 144 143 143 157 139 134 135 148 155 161 166 171 176 179 183 187 192 198 205 212 221 228 231 233 232 232 232 233 234 233 232 231 230
279 289 289 283 256 224 186 205 162 147 97 105 141 125 143 147 151 143 159 153 134 133 140 153 158 164 171 177 183 186 190 195 202 209 216 222 229 234 235 235 231 232 232 233 235 236 236 236 235
267 271 276 288 305 283 211 241 185 130 157 175 70 112 142 150 151 150 161 148 140 139 144 156 158 167 178 182 182 187 194 201 207 215 222 227 235 238 233 231 229 227 228 229 232 235 239 240 240
249 263 274 303 325 308 281 270 212 163 205 77 65 98 133 149 152 157 165 160 154 149 153 160 157 169 184 190 167 186 195 198 207 216 212 215 230 246 254 231 218 221 224 226 230 234 238 240 244
254 261 280 299 308 314 301 287 247 217 168 110 90 85 158 161 158 163 172 165 156 160 165 164 153 170 181 179 165 190 198 187 199 215 213 212 224 237 246 231 210 214 220 225 230 230 233 235 236
256 264 279 290 306 307 298 299 294 316 148 128 137 168 207 183 170 171 172 166 161 175 175 167 153 161 189 190 180 184 203 188 199 200 208 218 213 239 262 265 236 207 214 215 229 223 223 231 240
263 267 273 275 277 277 281 281 280 267 146 141 157 177 197 190 177 173 171 171 163 176 176 161 156 158 172 197 263 221 225 225 215 200 207 222 228 238 254 266 280 277 268 235 231 249 244 244 256
279 283 280 277 275 272 269 269 267 251 196 165 171 188 202 187 178 173 170 169 164 175 176 162 165 155 161 177 204 273 274 239 255 242 235 230 239 261 304 292 283 273 274 282 278 277 271 261 261
266 273 274 269 261 256 255 258 259 252 210 191 189 193 191 181 179 174 167 165 168 172 164 154 164 160 165 189 201 224 238 241 233 231 241 246 260 265 265 274 274 269 281 284 277 273 274 269 264
265 260 260 257 246 243 243 258 266 258 211 219 221 206 175 162 174 165 153 156 157 157 146 156 172 164 163 169 187 252 260 282 271 263 276 286 299 291 274 270 270 276 273 263 260 255 258 261 262
251 247 253 256 241 236 241 261 266 197 227 231 248 238 169 152 162 150 145 157 153 138 136 143 142 144 150 159 178 228 249 268 278 279 77 50 354 321 305 285 281 274 267 266 273 273 258 263 261
290 277 260 260 251 232 256 272 276 127 265 231 191 224 169 153 152 133 131 136 125 118 122 125 124 122 137 156 177 196 223 237 221 145 98 62 343 338 341 296 309 313 295 285 284 291 281 267 261
305 305 306 315 23 301 282 280 276 212 228 224 167 180 173 155 136 109 114 111 116 117 114 114 121 117 135 165 189 182 172 210 194 155 113 92 349 354 327 307 327 311 303 311 303 299 296 287 273
290 294 299 306 317 292 284 276 268 248 245 53 80 40 113 133 123 118 114 104 102 106 120 123 122 129 151 147 186 136 115 235 201 134 140 157 145 342 303 355 330 326 325 299 291 299 292 293 294
300 307 313 314 309 283 273 268 257 239 70 50 47 43 41 65 76 86 86 83 88 106 113 116 111 114 123 122 271 179 194 253 250 193 168 151 151 264 282 303 299 313 305 308 328 307 299 298 297
317 329 317 301 289 283 280 280 267 153 95 66 49 37 37 55 61 60 57 56 67 71 74 76 80 86 59 312 340 315 286 295 312 300 275 143 217 235 239 250 264 285 295 298 299 330 324 304 295
310 306 294 290 288 283 283 280 262 122 110 96 86 75 54 61 65 60 56 42 46 51 51 54 69 52 22 360 342 317 311 316 321 330 317 306 265 236 226 223 226 251 268 281 296 300 292 290 288
304 299 290 293 302 292 310 300 258 137 137 128 121 109 88 71 65 59 57 54 46 44 39 35 37 30 18 6 352 344 329 322 316 314 308 294 274 251 230 222 208 235 260 280 287 283 280 276 282
308 301 303 308 310 281 287 276 161 93 111 109 99 84 73 65 59 53 46 39 36 38 36 32 29 25 17 11 359 348 335 323 311 303 295 287 285 284 276 279 249 257 265 269 269 271 273 274 275
306 297 299 306 303 276 224 238 93 62 60 72 78 78 71 67 61 55 50 43 32 33 31 26 26 22 15 11 1 355 347 333 323 323 321 312 309 310 316 308 268 259 263 270 270 274 274 273 273
302 305 312 305 304 308 287 103 96 84 55 60 72 68 59 53 54 49 44 39 32 26 27 20 15 11 5 360 347 344 354 341 332 327 317 315 316 308 314 310 296 280 268 265 270 270 270 273 272
279 303 309 312 314 312 316 57 167 169 169 177 89 58 45 28 28 30 28 20 13 5 3 0 354 350 343 338 333 336 341 332 327 319 314 310 310 309 306 300 294 287 277 267 263 269 269 271 273
316 312 322 316 311 314 315 354 85 139 149 130 74 49 25 4 357 354 354 352 345 340 339 340 336 332 327 321 316 316 317 319 318 313 313 313 310 305 297 291 284 281 278 272 264 263 268 270 273
317 312 311 312 316 312 309 19 55 71 65 42 35 23 3 344 337 336 336 335 331 330 331 327 324 318 312 308 306 304 304 303 301 302 303 302 301 301 298 292 285 279 277 274 269 267 268 268 271
Height
1489 1488 1489 1494 1491 1483 1473 1462 1457 1458 1460 1462 1463 1462 1468 1475 1481 1495 1497 1498 1499 1500 1504 1508 1511 1513 1516 1519 1521 1524 1526 1528 1530 1531 1533 1534 1536 1537 1538 1540 1541 1542 1543 1544 1545 1546 1547 1548 1549
1488 1490 1495 1493 1490 1488 1476 1462 1463 1463 1462 1463 1465 1466 1472 1481 1486 1492 1496 1499 1499 1501 1505 1508 1511 1514 1517 1519 1522 1524 1527 1529 1531 1533 1534 1536 1537 1538 1540 1541 1542 1543 1544 1545 1546 1547 1548 1548 1549
1490 1492 1494 1485 1485 1484 1476 1463 1463 1463 1464 1465 1468 1473 1479 1486 1490 1493 1497 1500 1501 1503 1506 1509 1512 1514 1517 1520 1523 1525 1527 1530 1531 1533 1535 1537 1538 1539 1541 1542 1543 1544 1544 1545 1546 1547 1548 1548 1549
1491 1492 1490 1482 1480 1468 1463 1461 1460 1462 1465 1465 1468 1477 1485 1489 1491 1494 1498 1501 1502 1504 1506 1510 1512 1515 1518 1520 1523 1525 1528 1530 1532 1534 1535 1537 1538 1540 1541 1542 1543 1544 1544 1545 1546 1547 1547 1548 1549
1494 1489 1481 1482 1479 1465 1460 1460 1461 1464 1466 1467 1472 1481 1488 1492 1493 1496 1499 1502 1504 1506 1507 1510 1513 1515 1518 1521 1523 1525 1528 1530 1532 1534 1535 1537 1538 1539 1540 1541 1542 1543 1544 1545 1545 1546 1546 1547 1547
1492 1481 1480 1482 1479 1467 1461 1461 1462 1465 1469 1469 1473 1481 1490 1494 1495 1498 1500 1503 1506 1507 1508 1511 1513 1516 1518 1521 1523 1525 1527 1529 1531 1533 1534 1536 1537 1538 1539 1540 1541 1542 1543 1543 1544 1544 1545 1545 1546
1491 1482 1478 1472 1473 1469 1462 1461 1463 1465 1466 1468 1472 1480 1489 1494 1496 1499 1501 1504 1507 1507 1508 1511 1513 1516 1518 1520 1523 1525 1527 1529 1531 1532 1534 1535 1536 1537 1538 1539 1540 1540 1541 1541 1542 1542 1543 1543 1544
1488 1482 1476 1467 1468 1466 1461 1460 1462 1464 1468 1472 1472 1477 1486 1492 1496 1499 1502 1505 1507 1508 1508 1511 1513 1516 1518 1520 1522 1525 1526 1528 1530 1531 1532 1534 1535 1535 1536 1537 1538 1538 1539 1539 1540 1540 1540 1541 1541
1487 1485 1479 1466 1465 1462 1459 1460 1461 1465 1469 1471 1472 1474 1482 1490 1495 1499 1502 1505 1507 1509 1509 1511 1512 1515 1517 1519 1521 1524 1526 1527 1528 1530 1531 1532 1533 1533 1534 1535 1536 1536 1537 1537 1537 1538 1538 1538 1538
1481 1482 1472 1460 1459 1459 1459 1460 1460 1467 1470 1474 1477 1480 1485 1490 1494 1497 1500 1503 1506 1508 1510 1512 1512 1515 1517 1520 1521 1523 1524 1525 1527 1528 1529 1530 1531 1532 1533 1533 1533 1534 1534 1534 1534 1535 1535 1535 1535
1476 1475 1467 1462 1461 1461 1460 1459 1460 1463 1472 1478 1482 1487 1492 1491 1493 1495 1499 1502 1504 1507 1509 1512 1513 1515 1518 1520 1521 1522 1524 1524 1525 1526 1527 1528 1529 1530 1531 1532 1531 1531 1531 1531 1531 1531 1532 1532 1532
1473 1470 1467 1465 1464 1464 1463 1461 1461 1464 1469 1473 1480 1485 1489 1490 1491 1493 1496 1500 1502 1505 1508 1510 1512 1513 1516 1519 1521 1522 1523 1524 1525 1525 1526 1527 1527 1528 1529 1529 1530 1530 1529 1529 1529 1528 1528 1529 1530
1470 1469 1467 1466 1466 1466 1465 1464 1463 1465 1466 1470 1476 1480 1483 1486 1488 1491 1495 1498 1500 1503 1506 1508 1510 1511 1513 1516 1518 1520 1521 1523 1524 1524 1525 1525 1525 1525 1526 1526 1526 1527 1527 1527 1526 1526 1526 1527 1527
1471 1469 1466 1464 1464 1464 1464 1463 1462 1463 1464 1469 1473 1477 1479 1482 1484 1488 1491 1495 1497 1500 1503 1506 1508 1509 1511 1513 1515 1516 1518 1520 1521 1521 1522 1522 1522 1522 1522 1522 1522 1522 1523 1523 1523 1522 1522 1523 1523
1472 1471 1469 1465 1463 1461 1461 1462 1458 1458 1461 1465 1470 1472 1475 1478 1482 1485 1488 1491 1495 1498 1501 1503 1505 1507 1509 1511 1512 1514 1516 1517 1518 1518 1518 1519 1519 1518 1518 1518 1518 1518 1518 1518 1518 1518 1518 1518 1518
1470 1472 1473 1460 1455 1454 1460 1466 1455 1455 1460 1463 1466 1469 1472 1476 1480 1483 1486 1489 1491 1495 1497 1500 1503 1505 1507 1509 1510 1512 1513 1514 1515 1516 1515 1515 1515 1515 1514 1514 1514 1514 1514 1513 1513 1513 1513 1513 1513
1470 1473 1467 1454 1445 1447 1453 1460 1454 1456 1460 1463 1466 1468 1470 1474 1479 1482 1485 1488 1490 1493 1495 1497 1501 1503 1504 1506 1507 1509 1511 1512 1512 1513 1513 1512 1512 1512 1511 1511 1511 1511 1510 1510 1510 1509 1508 1508 1508
1470 1462 1457 1453 1445 1449 1455 1458 1455 1457 1462 1463 1467 1469 1471 1474 1478 1481 1484 1486 1488 1490 1492 1493 1497 1500 1502 1504 1505 1506 1508 1510 1510 1510 1510 1510 1509 1509 1508 1508 1508 1507 1507 1506 1506 1505 1505 1504 1503
1463 1462 1460 1454 1450 1455 1458 1458 1455 1456 1461 1462 1466 1469 1473 1475 1477 1481 1483 1484 1486 1488 1490 1492 1494 1497 1500 1502 1502 1503 1505 1507 1509 1509 1508 1508 1507 1507 1506 1505 1505 1504 1504 1503 1502 1501 1501 1500 1500
1465 1467 1464 1457 1453 1456 1461 1459 1453 1455 1459 1463 1466 1471 1472 1474 1476 1479 1481 1484 1486 1487 1488 1490 1494 1496 1499 1500 1501 1502 1503 1505 1507 1507 1506 1505 1505 1505 1504 1503 1502 1501 1501 1500 1499 1498 1497 1496 1496
1467 1469 1468 1467 1461 1457 1461 1463 1457 1457 1461 1466 1469 1473 1477 1478 1478 1481 1482 1485 1487 1487 1487 1490 1493 1496 1498 1499 1499 1501 1502 1504 1505 1504 1504 1503 1503 1502 1501 1500 1499 1499 1498 1497 1496 1495 1494 1493 1492
1474 1466 1466 1467 1470 1470 1465 1477 1462 1459 1465 1474 1478 1481 1482 1481 1482 1484 1483 1485 1485 1486 1487 1492 1494 1495 1497 1498 1498 1500 1500 1501 1502 1501 1502 1501 1500 1499 1498 1497 1496 1495 1495 1494 1493 1492 1491 1490 1488
1470 1465 1466 1467 1469 1472 1468 1476 1469 1462 1475 1481 1485 1487 1487 1485 1485 1486 1485 1486 1486 1487 1489 1491 1491 1494 1495 1497 1497 1498 1498 1498 1499 1498 1498 1497 1497 1496 1495 1494 1493 1492 1491 1490 1489 1488 1487 1485 1484
1465 1466 1466 1468 1477 1492 1488 1493 1481 1471 1475 1480 1484 1486 1487 1487 1488 1488 1489 1489 1489 1489 1490 1491 1491 1492 1494 1494 1494 1494 1494 1494 1494 1494 1494 1494 1494 1493 1492 1491 1489 1488 1487 1486 1485 1484 1482 1481 1480
1468 1477 1489 1498 1510 1512 1498 1495 1483 1474 1474 1478 1482 1486 1488 1489 1490 1490 1491 1491 1491 1490 1490 1491 1491 1491 1491 1490 1491 1491 1491 1490 1490 1490 1490 1490 1489 1489 1488 1487 1485 1484 1483 1482 1481 1479 1478 1476 1475
1470 1475 1491 1502 1498 1492 1491 1489 1488 1485 1485 1486 1487 1489 1491 1492 1493 1494 1494 1494 1494 1493 1492 1491 1490 1489 1488 1488 1488 1487 1486 1486 1486 1486 1485 1485 1484 1484 1483 1481 1480 1479 1478 1477 1476 1474 1473 1472 1470
1471 1471 1466 1475 1474 1477 1475 1487 1492 1491 1491 1491 1490 1491 1493 1495 1496 1497 1497 1497 1496 1496 1494 1492 1490 1489 1487 1486 1485 1484 1483 1482 1481 1480 1480 1479 1478 1477 1476 1476 1475 1474 1473 1472 1471 1469 1468 1466 1465
1463 1464 1469 1479 1491 1492 1477 1483 1492 1496 1495 1492 1493 1494 1496 1497 1497 1498 1498 1498 1497 1496 1494 1492 1490 1488 1486 1484 1483 1481 1479 1478 1476 1475 1474 1473 1471 1470 1469 1469 1468 1468 1467 1466 1465 1464 1463 1461 1459
1468 1468 1470 1474 1478 1491 1493 1492 1481 1489 1493 1493 1494 1496 1498 1499 1499 1498 1498 1497 1496 1494 1493 1491 1488 1486 1484 1481 1479 1477 1475 1473 1472 1470 1468 1466 1465 1464 1463 1461 1461 1460 1459 1459 1458 1457 1456 1455 1453
1468 1470 1473 1486 1488 1483 1488 1499 1488 1491 1493 1495 1497 1499 1500 1500 1499 1498 1496 1495 1493 1492 1490 1488 1485 1483 1480 1478 1476 1473 1471 1469 1466 1464 1462 1460 1458 1457 1456 1454 1453 1452 1452 1451 1451 1450 1450 1449 1447